Terminal Aerodrome Forecast
Issued by NWS

Home | Current Version | Previous Version | Text Only | Print | Product List | Glossary On
Versions: 1 2 3 4 5 6 7 8 9 10 11 12 13 14 15 16 17 18
000
FTUS43 KABR 232000 AAA
TAFPIR
TAF AMD
KPIR 232043Z 2321/2418 12015KT P6SM OVC023
     FM240000 13008KT P6SM OVC025
     FM240900 13005KT 4SM BR BKN010
     FM241500 21004KT P6SM SKC=

USA.gov is the U.S. government's official web portal to all federal, state and local government web resources and services.